Effective Sunday, March 17, 2024, the National Weather Service National Data Buoy Center will discontinue its Dial-A-Buoy Interactive Voice Response system. For more information, see Service Change Notice 24-06 (PDF).

Station WATS1 - Lake Wateree, SC Image indicating link to RSS feed of recent meteorological observations for station WATS1


Conditions at WATS1 as of
(8:30 am EST)
1330 GMT on 02/27/2024:
Note: This report is more than two hours old
     

Click on the graph icon in the table below to see a time series plot of the last five days of that observation.

5-day plot - Wind Direction Wind Direction (WDIR):ESE ( 120 deg true )
5-day plot - Wind Speed Wind Speed (WSPD): 2.9 kts
5-day plot - Wind Gust Wind Gust (GST): 7.0 kts
5-day plot - Air Temperature Air Temperature (ATMP): 51.1 °F
5-day plot - Wind Chill Wind Chill (CHILL): 50.5 °F
5-day plot - Wind Speed at 10 Meters Wind Speed at 10 meters (WSPD10M): 3.9 kts
5-day plot - Wind Speed at 20 Meters Wind Speed at 20 meters (WSPD20M): 3.9 kts
5-day plot -  Wind Speed, Wind Gust and Atmospheric Pressure Combined plot of Wind Speed, Gust, and Air Pressure
Previous observations
TIME
(EST)
5-day plot - Wind Direction
WDIR
 
5-day plot - Wind Speed
WSPD
kts
5-day plot - Wind Gust
GST
kts
5-day plot - Wave Height
WVHT
ft
5-day plot - Dominant Wave Period
DPD
sec
5-day plot - Average Wave Period
APD
sec
5-day plot - Mean Wave Direction
MWD
 
5-day plot - Atmospheric Pressure
PRES
in
5-day plot - Pressure Tendency
PTDY
in
5-day plot - Air Temperature
ATMP
°F
5-day plot - Water Temperature
WTMP
°F
5-day plot - Dew Point
DEWP
°F
5-day plot - Salinity
SAL
psu
5-day plot - Visibility
VIS
nmi
5-day plot - Tide (above MLLW)
TIDE
ft
2024-02-27 08:20 amESE 4.1 7.0------ 50.9-----
2024-02-27 08:10 am SE 2.9 6.0------ 50.5-----
2024-02-27 08:00 amESE 2.9 5.1------ 50.4-----
2024-02-27 07:50 amESE 2.9 4.1------ 50.0-----
2024-02-27 07:40 am SE 2.9 5.1------ 49.8-----
2024-02-27 07:30 am SE 2.9 5.1------ 49.5-----
2024-02-27 07:20 amESE 2.9 5.1------ 49.1-----
2024-02-27 07:10 am SE 1.0 5.1------ 49.1-----
2024-02-27 07:00 am SE 4.1 6.0------ 48.7-----
2024-02-27 06:50 amESE 4.1 7.0------ 48.7-----
2024-02-27 06:40 amESE 2.9 5.1------ 48.7-----
2024-02-27 06:30 amESE 2.9 6.0------ 48.6-----
2024-02-27 06:20 amESE 4.1 6.0------ 48.4-----
2024-02-27 06:10 amESE 2.9 5.1------ 48.2-----
2024-02-27 06:00 am SE 1.9 5.1------ 48.0-----
2024-02-27 05:50 amESE 4.1 6.0------ 47.8-----
2024-02-27 05:40 am SE 4.1 6.0------ 47.7-----
2024-02-27 05:30 am SE 2.9 5.1------ 46.9-----
2024-02-27 05:20 amESE 2.9 4.1------ 46.8-----
2024-02-27 05:10 amESE 1.9 4.1------ 46.8-----
2024-02-27 05:00 am SE 2.9 5.1------ 47.1-----
2024-02-27 04:50 am SE 4.1 5.1------ 47.5-----
2024-02-27 04:40 am SE 2.9 4.1------ 46.9-----
2024-02-27 04:30 amESE 2.9 4.1------ 45.7-----
2024-02-27 04:20 amESE 1.9 2.9------ 45.9-----
2024-02-27 04:10 am SE 1.9 4.1------ 47.3-----
2024-02-27 04:00 am SE 2.9 4.1------ 47.5-----
2024-02-27 03:50 amESE 1.9 4.1------ 47.3-----
2024-02-27 03:40 am E 1.9 2.9------ 47.8-----
2024-02-27 03:30 am- 0.0 2.9------ 47.1-----
2024-02-27 03:20 am SE 1.9 4.1------ 48.0-----
2024-02-27 03:10 amESE 1.9 4.1------ 46.8-----
2024-02-27 03:00 amESE 1.9 2.9------ 48.4-----
2024-02-27 02:50 am SE 1.9 2.9------ 49.1-----
2024-02-27 02:40 amESE 1.9 2.9------ 48.6-----
2024-02-27 02:30 amESE 1.9 2.9------ 48.9-----
2024-02-27 02:20 am- 0.0 2.9------ 48.0-----
2024-02-27 02:10 am E 1.0 2.9------ 48.7-----
2024-02-27 02:00 am- 0.0 1.9------ 48.0-----
2024-02-27 01:50 am SE 1.0 1.9------ 48.4-----
2024-02-27 01:40 am SE 1.0 1.9------ 48.4-----
2024-02-27 01:30 am SE 1.9 1.9------ 49.8-----
2024-02-27 01:20 amESE 1.9 2.9------ 49.6-----
2024-02-27 01:10 amESE 1.0 2.9------ 49.8-----
2024-02-27 01:00 amESE 1.9 1.9------ 50.9-----
2024-02-27 12:50 amESE 1.9 2.9------ 51.3-----
2024-02-27 12:40 amESE 1.9 2.9------ 51.8-----
2024-02-27 12:30 amESE 1.9 2.9------ 52.5-----
2024-02-27 12:20 amESE 1.9 2.9------ 52.7-----
2024-02-27 12:10 amESE 1.9 2.9------ 52.9-----
2024-02-27 12:00 amESE 1.9 4.1------ 53.4-----
2024-02-26 11:50 pmESE 1.9 4.1------ 53.6-----
2024-02-26 11:40 pmESE 1.9 5.1------ 54.3-----
2024-02-26 11:30 pmESE 2.9 6.0------ 54.7-----
2024-02-26 11:20 pmESE 2.9 5.1------ 55.0-----
2024-02-26 11:10 pmESE 2.9 5.1------ 55.4-----
2024-02-26 11:00 pm SE 1.9 5.1------ 55.6-----
2024-02-26 10:50 pm SE 1.9 6.0------ 55.9-----
2024-02-26 10:40 pmESE 2.9 6.0------ 56.3-----
2024-02-26 10:30 pmESE 2.9 5.1------ 56.7-----
2024-02-26 10:20 pm SE 4.1 7.0------ 57.0-----
2024-02-26 10:10 pmSSE 4.1 6.0------ 57.2-----
2024-02-26 10:00 pm SE 4.1 6.0------ 57.2-----
2024-02-26 09:50 pmESE 2.9 8.0------ 57.4-----
2024-02-26 09:40 pmESE 2.9 6.0------ 57.9-----
2024-02-26 09:30 pm SE 2.9 7.0------ 58.1-----
2024-02-26 09:20 pm SE 2.9 6.0------ 58.8-----
2024-02-26 09:10 pm SE 2.9 8.0------ 59.4-----
2024-02-26 09:00 pm SE 4.1 8.0------ 59.9-----
2024-02-26 08:50 pm SE 4.1 7.0------ 59.7-----
2024-02-26 08:40 pmSSE 2.9 7.0------ 59.9-----
2024-02-26 08:30 pm SE 2.9 7.0------ 60.4-----
2024-02-26 08:20 pm SE 1.9 7.0------ 59.7-----
2024-02-26 08:10 pm SE 1.9 7.0------ 60.3-----
2024-02-26 08:00 pm SE 4.1 8.0------ 61.0-----
2024-02-26 07:50 pm SE 2.9 6.0------ 60.6-----
2024-02-26 07:40 pm SE 2.9 5.1------ 60.6-----
2024-02-26 07:30 pm SE 2.9 6.0------ 61.3-----
2024-02-26 07:20 pm SE 1.9 4.1------ 61.9-----
2024-02-26 07:10 pm SE 1.9 4.1------ 62.2-----
2024-02-26 07:00 pm SE 1.9 5.1------ 63.7-----
2024-02-26 06:50 pm SE 1.9 7.0------ 64.6-----
2024-02-26 06:40 pm SE 2.9 7.0------ 65.7-----
2024-02-26 05:50 pm S 4.1 9.9------ 68.5-----
2024-02-26 05:40 pmSSE 4.1 8.9------ 69.3-----
2024-02-26 03:30 pmSSW 7.0 12.0------------
2024-02-26 03:20 pm S 7.0 11.1------------
2024-02-26 03:00 pm S 6.0 13.0------------
2024-02-26 02:40 pm S 8.0 15.0------------